EN

Hourly Weather Dzierzgow

Today, 29 October, Thursday

Time Temperature Precipitation Wind Pressure Humidity
00:00 +10°C° 0 mm 3 mps 739 mmHg 80%
01:00 +10°C° 0 mm 3 mps 739 mmHg 80%
02:00 +10°C° 0 mm 3 mps 739 mmHg 82%
03:00 +9°C° 0 mm 3 mps 739 mmHg 84%
04:00 +9°C° 0 mm 3 mps 738 mmHg 87%
05:00 +9°C° 0 mm 3 mps 739 mmHg 86%
06:00 +9°C° 0 mm 3 mps 739 mmHg 85%
07:00 +9°C° 0 mm 3 mps 739 mmHg 84%
08:00 +10°C° 0 mm 4 mps 738 mmHg 78%
09:00 +10°C° 0 mm 5 mps 738 mmHg 71%
10:00 +13°C° 0 mm 6 mps 738 mmHg 65%
11:00 +13°C° 0 mm 6 mps 738 mmHg 65%
12:00 +13°C° 0 mm 6 mps 738 mmHg 65%
13:00 +13°C° 0 mm 6 mps 738 mmHg 65%
14:00 +11°C° 0.2 mm 6 mps 738 mmHg 71%
15:00 +10°C° 0.2 mm 6 mps 738 mmHg 76%
16:00 +9°C° 0.2 mm 5 mps 738 mmHg 82%
17:00 +9°C° 0.1 mm 5 mps 739 mmHg 79%
18:00 +9°C° 0.1 mm 5 mps 739 mmHg 76%
19:00 +8°C° 0.1 mm 5 mps 739 mmHg 73%
20:00 +8°C° 0 mm 4 mps 740 mmHg 74%
21:00 +7°C° 0 mm 4 mps 740 mmHg 76%
22:00 +6°C° 0 mm 4 mps 741 mmHg 77%
23:00 +6°C° 0 mm 4 mps 741 mmHg 79%

Tomorrow, 30 October, Friday

Time Temperature Precipitation Wind Pressure Humidity
00:00 +5°C° 0 mm 4 mps 741 mmHg 80%
01:00 +5°C° 0 mm 4 mps 742 mmHg 81%
02:00 +5°C° 0 mm 4 mps 742 mmHg 82%
03:00 +5°C° 0 mm 5 mps 742 mmHg 83%
04:00 +3°C° 0 mm 5 mps 742 mmHg 84%
05:00 +4°C° 0 mm 4 mps 742 mmHg 84%
06:00 +4°C° 0 mm 4 mps 742 mmHg 84%
07:00 +4°C° 0 mm 4 mps 742 mmHg 84%
08:00 +5°C° 0 mm 4 mps 742 mmHg 79%
09:00 +6°C° 0 mm 4 mps 742 mmHg 73%
10:00 +8°C° 0 mm 4 mps 742 mmHg 67%
11:00 +8°C° 0 mm 4 mps 742 mmHg 66%
12:00 +8°C° 0 mm 5 mps 742 mmHg 65%
13:00 +9°C° 0 mm 5 mps 741 mmHg 64%
14:00 +8°C° 0.3 mm 5 mps 741 mmHg 72%
15:00 +8°C° 0.3 mm 4 mps 741 mmHg 80%
16:00 +7°C° 0.3 mm 4 mps 741 mmHg 88%
17:00 +8°C° 0.5 mm 4 mps 740 mmHg 89%
18:00 +8°C° 0.5 mm 5 mps 740 mmHg 91%
19:00 +8°C° 0.5 mm 5 mps 740 mmHg 93%
20:00 +9°C° 1.1 mm 5 mps 740 mmHg 93%
21:00 +9°C° 1.1 mm 6 mps 740 mmHg 94%
22:00 +10°C° 1.1 mm 6 mps 739 mmHg 94%
23:00 +10°C° 0.9 mm 6 mps 739 mmHg 94%

Day after tomorrow, 31 October, Saturday

Time Temperature Precipitation Wind Pressure Humidity
00:00 +10°C° 0.9 mm 6 mps 739 mmHg 94%
01:00 +10°C° 0.9 mm 6 mps 739 mmHg 94%
02:00 +10°C° 0.8 mm 5 mps 740 mmHg 95%
03:00 +11°C° 0.8 mm 4 mps 740 mmHg 95%
04:00 +10°C° 0.8 mm 3 mps 740 mmHg 96%
05:00 +10°C° 0.4 mm 3 mps 741 mmHg 95%
06:00 +9°C° 0.4 mm 3 mps 741 mmHg 94%
07:00 +9°C° 0.4 mm 2 mps 742 mmHg 93%
08:00 +9°C° 0 mm 2 mps 742 mmHg 87%
09:00 +9°C° 0 mm 2 mps 743 mmHg 81%
10:00 +10°C° 0 mm 2 mps 743 mmHg 76%
11:00 +11°C° 0 mm 1 mps 743 mmHg 70%
12:00 +12°C° 0 mm 1 mps 744 mmHg 65%
13:00 +13°C° 0 mm 1 mps 744 mmHg 59%
14:00 +12°C° 0 mm 1 mps 744 mmHg 62%
15:00 +11°C° 0 mm 1 mps 744 mmHg 65%
16:00 +11°C° 0 mm 1 mps 744 mmHg 68%
17:00 +10°C° 0 mm 1 mps 744 mmHg 71%
18:00 +9°C° 0 mm 1 mps 744 mmHg 74%
19:00 +9°C° 0 mm 1 mps 745 mmHg 77%
20:00 +8°C° 0 mm 1 mps 745 mmHg 79%
21:00 +8°C° 0 mm 1 mps 745 mmHg 81%
22:00 +8°C° 0 mm 1 mps 745 mmHg 83%
23:00 +7°C° 0 mm 1 mps 745 mmHg 85%

1 November, Sunday

Time Temperature Precipitation Wind Pressure Humidity
00:00 +7°C° 0 mm 1 mps 745 mmHg 87%
01:00 +6°C° 0 mm 2 mps 745 mmHg 88%
02:00 +5°C° 0 mm 2 mps 745 mmHg 90%
03:00 +5°C° 0 mm 2 mps 745 mmHg 91%
04:00 +5°C° 0 mm 2 mps 745 mmHg 92%
05:00 +5°C° 0 mm 2 mps 745 mmHg 93%
06:00 +4°C° 0 mm 2 mps 745 mmHg 94%
07:00 +4°C° 0 mm 2 mps 745 mmHg 94%
08:00 +5°C° 0 mm 3 mps 745 mmHg 89%
09:00 +7°C° 0 mm 3 mps 745 mmHg 83%
10:00 +8°C° 0 mm 3 mps 745 mmHg 78%
11:00 +8°C° 0 mm 4 mps 744 mmHg 73%
12:00 +10°C° 0 mm 4 mps 744 mmHg 69%
13:00 +11°C° 0 mm 4 mps 744 mmHg 64%
14:00 +10°C° 0 mm 4 mps 744 mmHg 68%
15:00 +9°C° 0 mm 3 mps 743 mmHg 72%
16:00 +9°C° 0 mm 3 mps 743 mmHg 75%
17:00 +8°C° 0 mm 3 mps 743 mmHg 77%
18:00 +7°C° 0 mm 3 mps 743 mmHg 80%
19:00 +7°C° 0 mm 3 mps 743 mmHg 82%
20:00 +7°C° 0 mm 3 mps 743 mmHg 82%
21:00 +7°C° 0 mm 2 mps 743 mmHg 82%
22:00 +6°C° 0 mm 2 mps 743 mmHg 82%
23:00 +5°C° 0 mm 3 mps 742 mmHg 84%

2 November, Monday

Time Temperature Precipitation Wind Pressure Humidity
00:00 +5°C° 0 mm 3 mps 742 mmHg 86%
01:00 +5°C° 0 mm 3 mps 742 mmHg 88%
02:00 +5°C° 0 mm 3 mps 742 mmHg 89%
03:00 +5°C° 0 mm 3 mps 742 mmHg 90%
04:00 +5°C° 0 mm 3 mps 741 mmHg 92%
05:00 +5°C° 0 mm 3 mps 741 mmHg 91%
06:00 +5°C° 0 mm 3 mps 742 mmHg 91%
07:00 +5°C° 0 mm 3 mps 742 mmHg 90%
08:00 +8°C° 0 mm 3 mps 742 mmHg 86%
09:00 +9°C° 0 mm 3 mps 742 mmHg 82%
10:00 +10°C° 0 mm 3 mps 742 mmHg 78%
11:00 +10°C° 0 mm 3 mps 741 mmHg 78%
12:00 +12°C° 0 mm 2 mps 741 mmHg 77%
13:00 +12°C° 0 mm 2 mps 741 mmHg 76%
14:00 +12°C° 0 mm 2 mps 741 mmHg 77%
15:00 +12°C° 0 mm 2 mps 741 mmHg 78%
16:00 +10°C° 0 mm 2 mps 741 mmHg 79%
17:00 +10°C° 0 mm 2 mps 741 mmHg 78%
18:00 +10°C° 0 mm 2 mps 741 mmHg 77%
19:00 +10°C° 0 mm 2 mps 741 mmHg 76%
20:00 +10°C° 0 mm 2 mps 741 mmHg 76%
21:00 +10°C° 0 mm 3 mps 741 mmHg 76%
22:00 +10°C° 0 mm 3 mps 742 mmHg 76%
23:00 +10°C° 0 mm 3 mps 742 mmHg 76%

3 November, Tuesday

Time Temperature Precipitation Wind Pressure Humidity
00:00 +10°C° 0 mm 3 mps 742 mmHg 77%
01:00 +10°C° 0 mm 3 mps 742 mmHg 78%
02:00 +9°C° 0 mm 3 mps 742 mmHg 76%
03:00 +9°C° 0 mm 3 mps 742 mmHg 75%
04:00 +9°C° 0 mm 3 mps 742 mmHg 74%
05:00 +8°C° 0 mm 3 mps 742 mmHg 74%
06:00 +8°C° 0 mm 3 mps 742 mmHg 74%
07:00 +7°C° 0 mm 3 mps 742 mmHg 74%
08:00 +7°C° 0 mm 4 mps 742 mmHg 73%
09:00 +8°C° 0 mm 4 mps 743 mmHg 73%
10:00 +9°C° 0 mm 5 mps 743 mmHg 72%
11:00 +10°C° 0 mm 5 mps 743 mmHg 69%
12:00 +10°C° 0 mm 5 mps 743 mmHg 66%
13:00 +12°C° 0 mm 4 mps 743 mmHg 63%
14:00 +11°C° 0 mm 4 mps 743 mmHg 67%
15:00 +10°C° 0 mm 4 mps 743 mmHg 72%
16:00 +8°C° 0 mm 4 mps 743 mmHg 76%
17:00 +8°C° 0 mm 4 mps 743 mmHg 79%
18:00 +7°C° 0 mm 4 mps 743 mmHg 82%
19:00 +7°C° 0 mm 4 mps 744 mmHg 85%
20:00 +6°C° 0 mm 4 mps 744 mmHg 87%
21:00 +6°C° 0 mm 4 mps 744 mmHg 89%
22:00 +5°C° 0 mm 4 mps 744 mmHg 91%
23:00 +5°C° 0 mm 4 mps 744 mmHg 92%
Show more